This demonstration page uses our WeatherBlox Daily Observations layout. Learn more.

39.29038, -76.61219

Hourly Observations for December 3, 2018

Temp ( °F °C ) Dew Point ( °F °C ) Humidity (%) Winds ( mph kmh ) Pressure ( in mb ) Visibility ( mi km ) Precip ( " mm )
12:54 am 00:54 undefined 57 13.9 54 12.2 90 90 undefined N/A 29.59 1002 N/A 0 0
1:54 am 01:54 undefined 56 13.3 53 11.7 90 90 undefined N/A 29.59 1002 N/A 0 0
2:54 am 02:54 undefined 54 12.2 51 10.6 90 90 undefined N/A 29.62 1003 N/A 0 0
3:54 am 03:54 undefined 53 11.7 50 10 89 89 undefined N/A 29.62 1003 N/A 0 0
4:54 am 04:54 undefined 53 11.7 48 8.9 83 83 undefined N/A 29.65 1004 N/A 0 0
5:54 am 05:54 undefined 54 12.2 45 7.2 72 72 undefined N/A 29.65 1004 N/A 0 0
6:54 am 06:54 undefined 53 11.7 42 5.6 66 66 undefined N/A 29.68 1005 N/A 0 0
7:54 am 07:54 undefined 53 11.7 39 3.9 59 59 undefined N/A 29.71 1006 N/A 0 0
8:54 am 08:54 undefined 54 12.2 38 3.3 55 55 undefined N/A 29.74 1007 N/A 0 0
9:54 am 09:54 undefined 56 13.3 36 2.2 47 47 undefined N/A 29.77 1008 N/A 0 0
10:54 am 10:54 undefined 57 13.9 36 2.2 45 45 undefined N/A 29.77 1008 N/A 0 0
11:54 am 11:54 undefined 58 14.4 35 1.7 42 42 undefined N/A 29.74 1007 N/A 0 0
12:54 pm 12:54 undefined 57 13.9 36 2.2 45 45 undefined N/A 29.71 1006 N/A 0 0
1:54 pm 13:54 undefined 57 13.9 36 2.2 45 45 undefined N/A 29.71 1006 N/A 0 0
2:54 pm 14:54 undefined 55 12.8 35 1.7 47 47 undefined N/A 29.71 1006 N/A 0 0
3:54 pm 15:54 undefined 54 12.2 34 1.1 47 47 undefined N/A 29.74 1007 N/A 0 0
4:54 pm 16:54 undefined 53 11.7 33 0.6 47 47 undefined N/A 29.77 1008 N/A 0 0
5:54 pm 17:54 undefined 51 10.6 32 0 48 48 undefined N/A 29.8 1009 N/A 0 0
6:54 pm 18:54 undefined 50 10 32 0 50 50 undefined N/A 29.8 1009 N/A 0 0
7:54 pm 19:54 undefined 50 10 31 -0.6 48 48 undefined N/A 29.83 1010 N/A 0 0
8:54 pm 20:54 undefined 49 9.4 30 -1.1 48 48 undefined N/A 29.83 1010 N/A 0 0
9:54 pm 21:54 undefined 48 8.9 30 -1.1 50 50 undefined N/A 29.8 1009 N/A 0 0
10:54 pm 22:54 undefined 47 8.3 30 -1.1 52 52 undefined N/A 29.83 1010 N/A 0 0
11:54 pm 23:54 undefined 46 7.8 31 -0.6 56 56 undefined N/A 29.83 1010 N/A 0 0

Powered by AerisWeather